Flag for Germany Weather past 2 weeks in Koblenz, Rhineland-Palatinate, Germany

Now
81 °F

Passing clouds.


Feels Like: 80 °F
Forecast: 56 / 69 °F
Wind: 8 mph from West

Location: Buechel

Current Time: Aug 31, 2015 at 8:06:41 PM

Latest Report: Aug 31, 2015 at 7:20 PM


Visibility: N/A

Pressure: 29.86 "Hg

Humidity: 37%

Dew point: 52 °F

Location of KoblenzLocation

Historic Weather in Koblenz — Graph

°F

Koblenz temperature yesterday

Maximum temperature yesterday: 84 °F (at 2:20 PM)
Minimum temperature yesterday: 66 °F (at 5:20 AM)
Average temperature yesterday: 75 °F

Past Weeks' High & Low Weather Summary

 TemperatureHumidityPressure
High84 °F (Aug 30, 2:20 PM)100% (Aug 17, 7:20 AM)30.30 "Hg (Aug 17, 7:20 AM)
Low48 °F (Aug 19, 5:20 AM)29% (Aug 22, 6:20 PM)29.65 "Hg (Aug 24, 12:20 PM)
Average62 °F73%30.02 "Hg
* Reported Aug 16 6:20 PM — Aug 31 6:20 PM, Koblenz, Weather by CustomWeather, © 2015

Note: Actual official high and low records may vary slightly from our data, if they occured in-between our weather recording intervals... More about our weather records

Advertising

Koblenz weather history for previous 24 hours

 ConditionsComfort  
Time TempWeatherWind HumidityBarometerVisibility
6:20 PM
Mon, Aug 31
82 °FPassing clouds.12 mph32%29.86 "HgN/A
5:20 PM84 °FPassing clouds.15 mph33%29.86 "HgN/A
4:20 PM84 °FPassing clouds.17 mph31%29.89 "HgN/A
3:20 PM84 °FScattered clouds.16 mph35%29.89 "HgN/A
2:20 PM82 °FScattered clouds.13 mph35%29.92 "HgN/A
1:20 PM81 °FPassing clouds.17 mph37%29.95 "HgN/A
12:20 PM79 °FScattered clouds.13 mph39%29.95 "HgN/A
11:20 AM75 °FScattered clouds.12 mph47%29.98 "HgN/A
10:20 AM73 °FScattered clouds.10 mph50%29.95 "HgN/A
9:20 AM72 °FScattered clouds.12 mph57%29.98 "HgN/A
8:20 AM70 °FPassing clouds.10 mph60%29.98 "HgN/A
7:20 AM66 °FPassing clouds.8 mph68%29.98 "HgN/A
6:20 AM68 °FPassing clouds.7 mph64%29.98 "HgN/A
5:20 AM72 °FPassing clouds.6 mph57%30.01 "HgN/A
4:20 AM70 °FMild.7 mph64%30.01 "HgN/A
3:20 AM72 °FMild.7 mph61%30.01 "HgN/A
2:20 AM72 °FMild.8 mph69%30.01 "Hg5 mi
1:20 AM75 °FMild.7 mph65%30.04 "Hg6 mi
12:20 AM75 °FMild.5 mph69%30.04 "HgN/A
11:20 PM
Sun, Aug 30
75 °FMild.5 mph65%30.04 "Hg6 mi
10:20 PM77 °FWarm.5 mph65%30.07 "HgN/A
9:20 PM77 °FWarm.3 mph65%30.07 "HgN/A
8:20 PM79 °FWarm.3 mph61%30.07 "HgN/A
Weather by CustomWeather, © 2015

See weather overviewHow to use our weather pages